Wind_Speed
11 10 10 10 10 10 10 10 9 9 10 10 11 11 12 12 11 11 11 12 12 12 12 12 12 11 11 10 10 9 9 9 9 9 9 9 10 10 10 11 12 13 13 14
12 12 12 12 11 11 11 11 10 11 11 12 12 12 12 12 12 12 12 12 13 13 12 12 12 12 12 11 11 10 10 10 10 10 10 10 10 11 12 13 13 14 15 15
15 14 13 13 12 12 12 12 12 12 12 13 13 13 13 13 13 12 12 12 13 13 13 13 13 13 12 12 11 11 11 11 11 11 11 12 12 12 13 14 15 16 16 17
17 16 15 13 13 13 13 13 13 13 13 13 14 14 14 14 14 13 13 13 13 14 14 13 13 13 12 12 13 12 12 12 13 13 14 14 15 15 16 16 17 17 18 18
18 18 16 15 14 15 14 14 13 13 13 13 14 14 14 14 14 14 14 14 14 14 15 14 14 13 13 13 14 14 14 15 15 15 16 17 17 18 18 19 19 19 19 19
19 19 18 16 17 16 16 15 15 15 14 14 15 14 14 15 15 15 15 15 15 15 15 15 15 15 15 15 15 15 16 16 17 17 18 18 19 20 20 20 21 21 21 21
20 20 18 18 18 18 17 16 16 16 15 15 15 15 15 15 15 15 15 15 15 16 16 16 16 16 16 17 17 17 18 18 19 19 20 20 21 22 22 22 23 23 23 23
21 21 18 18 19 19 18 18 18 18 17 17 17 17 17 17 17 17 16 16 16 16 17 17 17 18 18 18 19 19 19 20 21 22 22 23 24 24 24 24 25 25 25 25
23 22 20 20 20 20 20 20 20 20 19 18 18 18 19 19 18 18 18 18 18 18 18 19 19 19 20 20 20 21 21 22 23 24 25 25 26 26 26 26 27 27 27 27
23 23 22 22 22 22 22 22 21 21 21 21 20 20 20 19 19 19 19 19 19 19 20 20 20 21 22 22 23 23 24 25 26 27 27 27 27 28 28 28 29 29 30 30
25 24 24 24 24 24 24 24 23 23 23 23 22 22 21 21 21 21 21 21 21 21 22 22 23 23 24 25 25 26 27 27 28 29 29 30 30 30 30 31 31 32 32 32
26 26 26 26 26 26 25 25 25 25 24 24 24 24 23 23 23 23 23 23 24 24 24 25 25 26 26 27 27 28 29 29 30 31 31 32 32 32 32 33 33 34 34 35
28 28 28 27 27 27 27 27 27 27 27 27 26 26 26 26 26 25 25 26 26 27 27 28 28 28 29 29 30 30 30 31 32 33 33 34 34 34 35 35 36 36 37 38
29 29 29 28 28 29 29 29 28 28 28 28 28 28 28 27 27 27 28 28 29 29 29 29 30 30 31 31 31 32 33 33 34 34 35 35 36 36 36 37 38 38 39 40
30 30 29 29 29 29 30 30 30 30 30 30 30 30 30 30 30 29 30 30 30 31 31 31 32 32 32 33 33 34 34 35 35 36 37 37 38 38 39 39 40 40 41 42
31 31 30 30 29 29 30 30 30 30 31 31 31 31 32 32 32 31 31 31 32 32 32 33 33 33 34 35 36 36 36 37 37 38 39 40 40 41 41 41 42 43 43 43
32 31 31 31 30 30 30 30 30 30 31 32 33 33 33 33 33 33 33 33 34 34 34 35 35 36 36 37 37 37 38 38 39 40 41 41 42 43 43 43 44 44 44 44
32 32 32 31 31 31 31 31 31 32 32 33 34 34 34 34 34 34 35 35 35 36 36 36 37 38 38 38 38 39 39 40 41 41 42 42 43 44 44 44 45 45 45 45
33 33 33 32 32 32 33 33 33 33 34 34 34 35 35 35 35 35 36 37 37 37 37 38 38 39 39 40 40 40 41 41 42 42 43 43 43 44 45 45 45 46 46 46
34 34 33 33 33 33 33 33 34 34 34 35 35 35 36 36 36 37 37 38 38 39 39 40 40 41 41 41 41 41 41 41 42 42 43 43 44 45 46 46 47 47 48 47
35 35 34 34 35 35 35 35 35 35 35 36 36 37 37 37 38 38 38 38 39 40 41 41 42 42 42 42 42 42 42 42 42 43 44 45 46 47 48 48 48 49 49 48
37 36 36 36 36 36 36 37 37 37 37 37 38 38 38 39 39 39 40 40 40 41 41 42 42 42 42 42 42 43 43 44 45 46 46 47 48 48 49 49 49 49 49 48
37 37 37 37 37 37 37 38 38 38 38 38 39 39 39 39 39 40 40 40 41 42 42 42 42 42 42 43 43 44 45 46 47 48 49 49 50 50 50 50 49 49 49 48
37 37 37 38 38 38 38 39 39 39 39 39 39 39 39 40 41 41 41 42 43 43 43 43 43 44 44 45 45 46 47 48 49 49 50 50 50 50 50 50 49 49 48 48
37 37 38 38 38 38 38 39 39 40 40 41 40 41 41 42 42 43 43 44 44 45 45 46 46 47 47 48 48 49 49 49 49 50 50 49 49 49 48 48 48 48 48 49
37 37 38 38 39 39 39 40 41 41 41 41 42 42 42 43 44 44 45 45 46 46 47 47 48 48 48 48 48 48 48 49 48 48 48 48 48 48 48 48 48 48 48 49
37 37 38 38 39 39 40 41 41 42 42 42 43 43 43 44 44 45 45 46 47 47 48 48 48 47 47 47 48 48 48 48 48 48 48 48 48 48 48 48 48 48 49 49
Wind_Direction
223 226 223 222 220 220 221 221 222 225 230 229 227 228 227 225 224 224 226 228 228 229 231 234 235 237 241 246 252 256 261 264 267 272 280 287 294 300 306 312 317 318 320 322
230 232 229 227 223 223 225 226 228 230 230 229 231 231 229 229 228 228 230 233 234 234 235 237 239 241 245 248 252 256 260 264 268 273 279 286 292 296 302 308 311 313 316 317
233 235 235 230 228 230 230 230 230 230 229 230 232 233 230 230 232 234 235 237 239 240 239 242 243 244 247 248 252 257 262 265 270 276 281 286 291 295 299 303 305 308 311 313
235 237 238 235 233 233 233 232 231 229 229 231 232 233 232 234 237 238 237 239 241 242 242 243 244 246 250 254 257 260 265 270 275 279 283 287 291 295 298 300 301 304 308 309
237 239 240 238 237 236 235 233 235 233 232 234 237 237 237 238 238 239 240 242 244 245 245 246 247 251 255 259 261 263 267 272 276 279 283 287 290 293 296 297 299 302 304 306
237 241 241 238 239 240 238 236 237 237 236 238 238 240 241 241 241 241 243 245 247 248 246 247 250 254 258 263 266 267 271 275 278 281 283 286 289 291 293 294 296 299 301 303
239 241 241 239 239 240 240 239 239 239 239 241 242 242 242 243 245 246 248 250 251 252 252 253 255 257 261 266 268 270 274 278 281 284 285 287 290 291 292 292 294 296 297 299
241 242 242 242 240 239 239 239 239 240 241 242 243 243 245 247 249 251 253 254 254 254 255 256 258 261 265 268 270 272 276 279 282 284 285 287 289 291 291 291 293 294 295 296
242 243 243 242 241 239 240 241 241 242 244 245 246 247 247 250 252 254 255 254 255 257 258 259 261 264 268 270 272 274 277 279 282 283 285 287 289 289 290 291 292 293 294 295
243 244 245 243 243 242 242 243 244 244 245 247 249 250 251 252 254 255 255 256 257 259 261 263 264 267 269 271 273 274 277 280 281 282 284 286 287 288 289 290 291 293 294 295
244 245 246 245 244 244 245 246 247 248 248 249 249 252 253 254 255 256 257 258 259 261 263 266 268 270 271 273 274 276 278 280 281 282 284 285 286 287 288 289 290 292 293 294
245 246 246 246 244 244 245 247 248 249 249 249 250 252 253 255 256 257 259 260 261 263 265 268 269 271 273 274 275 277 279 280 282 283 284 285 286 287 288 288 289 291 292 293
247 246 246 247 247 247 247 248 248 249 249 249 251 252 254 256 257 259 261 262 264 266 268 269 270 272 274 276 277 278 280 281 283 283 284 285 286 287 288 288 289 291 292 293
248 247 247 247 248 248 249 249 249 250 251 251 252 253 254 256 257 260 263 265 266 267 269 270 272 274 275 277 278 279 280 282 283 283 284 285 286 287 288 288 290 291 292 294
249 249 248 248 249 250 250 250 251 251 251 252 253 253 254 256 258 261 263 265 266 268 270 272 274 275 276 277 278 280 281 282 283 284 285 285 286 287 288 289 291 292 293 294
249 250 250 250 250 250 251 252 253 253 253 254 254 255 256 258 259 261 263 266 268 270 271 272 274 275 275 277 278 280 281 282 283 284 286 287 288 289 290 290 292 293 293 294
249 250 251 251 251 251 252 252 252 253 254 255 256 256 257 259 261 262 264 266 268 270 271 272 273 274 276 277 279 280 280 282 284 285 286 287 288 289 290 291 292 292 293 293
248 249 250 251 251 252 251 252 253 253 254 255 257 257 259 261 262 263 264 267 269 270 271 272 273 274 276 278 279 280 282 283 284 286 287 288 289 289 290 291 292 292 293 293
248 249 250 252 252 252 252 253 254 254 254 256 258 259 260 262 264 266 266 268 270 271 272 273 273 275 278 279 281 282 283 284 285 286 287 288 290 291 291 292 292 293 293 293
249 250 250 251 252 253 253 254 255 256 257 258 259 260 261 262 265 266 267 269 270 272 273 274 275 277 278 279 281 282 283 284 285 287 288 289 290 291 292 292 293 293 293 293
250 250 251 252 253 254 254 255 256 257 258 259 260 262 263 264 265 267 269 270 271 272 273 275 276 277 278 279 280 281 283 284 286 287 288 289 290 291 292 292 293 293 293 293
250 251 251 252 253 254 255 256 257 258 260 260 261 262 264 264 265 267 269 270 270 272 273 274 276 277 278 279 280 282 283 284 286 287 289 290 291 292 292 292 293 293 293 293
251 251 252 252 253 253 255 257 258 260 261 262 262 262 264 265 266 267 269 270 271 272 273 274 275 276 278 279 280 282 283 285 287 288 289 290 291 292 292 292 292 293 293 293
251 251 251 252 253 254 255 257 259 260 261 262 263 263 264 265 267 268 269 270 271 272 273 274 275 277 278 280 281 283 284 286 287 288 289 290 291 291 291 291 291 292 293 293
251 252 253 253 254 255 256 257 259 261 262 262 263 264 266 266 267 268 270 270 271 272 273 274 275 277 279 280 282 284 285 286 287 288 288 289 290 290 290 291 292 292 292 293
252 252 253 254 255 256 257 259 260 262 263 263 264 265 266 267 268 268 270 271 272 273 274 276 277 279 280 282 283 284 285 286 287 287 288 288 289 290 290 290 291 292 293 293
252 253 254 255 256 257 259 260 261 262 263 264 266 267 268 269 269 270 270 271 272 274 275 276 277 278 280 281 283 284 285 286 286 287 288 288 289 289 290 290 291 292 293 293
Height
5831 5832 5833 5834 5835 5836 5838 5840 5841 5842 5843 5844 5845 5846 5847 5849 5850 5852 5853 5854 5856 5857 5858 5860 5860 5861 5862 5863 5863 5863 5864 5863 5863 5863 5862 5862 5861 5860 5858 5857 5855 5853 5851 5849
5828 5829 5830 5832 5833 5835 5836 5837 5838 5839 5840 5841 5842 5843 5845 5846 5848 5849 5850 5852 5853 5854 5855 5856 5857 5858 5859 5860 5860 5860 5860 5860 5860 5860 5860 5859 5858 5857 5855 5854 5852 5850 5848 5845
5826 5827 5828 5830 5831 5832 5834 5835 5836 5837 5839 5838 5839 5841 5842 5844 5845 5846 5848 5849 5850 5851 5852 5853 5854 5855 5856 5856 5857 5857 5857 5857 5857 5857 5856 5855 5854 5853 5852 5850 5848 5846 5844 5841
5822 5824 5825 5829 5828 5829 5830 5832 5832 5834 5835 5835 5837 5838 5839 5841 5842 5843 5844 5846 5847 5848 5849 5849 5850 5851 5852 5852 5853 5853 5853 5853 5853 5853 5852 5851 5850 5849 5847 5846 5844 5842 5840 5837
5818 5820 5822 5824 5825 5826 5827 5829 5829 5830 5831 5832 5833 5835 5836 5838 5839 5840 5841 5842 5843 5844 5845 5846 5847 5847 5848 5848 5849 5849 5849 5849 5849 5848 5847 5846 5845 5844 5842 5840 5838 5836 5834 5832
5814 5816 5818 5821 5821 5822 5824 5825 5826 5827 5828 5829 5830 5832 5834 5834 5835 5836 5837 5838 5839 5840 5841 5842 5842 5843 5843 5844 5844 5844 5844 5844 5844 5843 5842 5841 5840 5838 5836 5835 5833 5831 5829 5827
5809 5810 5813 5815 5816 5818 5821 5822 5822 5823 5824 5825 5827 5828 5830 5830 5831 5832 5834 5834 5835 5836 5837 5837 5838 5838 5839 5839 5839 5839 5839 5839 5838 5837 5836 5835 5834 5832 5830 5829 5827 5825 5823 5821
5804 5805 5810 5810 5811 5813 5815 5816 5817 5818 5820 5821 5822 5823 5825 5826 5827 5828 5829 5830 5831 5831 5832 5833 5833 5833 5834 5834 5834 5833 5833 5833 5832 5831 5830 5829 5827 5826 5824 5822 5820 5818 5816 5814
5799 5802 5803 5804 5806 5807 5809 5811 5812 5814 5815 5816 5818 5819 5820 5821 5822 5823 5824 5825 5826 5826 5827 5827 5828 5828 5828 5828 5827 5827 5827 5826 5825 5824 5823 5822 5820 5818 5817 5815 5813 5811 5808 5806
5792 5795 5797 5798 5799 5801 5803 5805 5807 5808 5810 5811 5813 5814 5815 5816 5817 5818 5819 5819 5820 5821 5821 5821 5822 5822 5822 5821 5821 5821 5820 5819 5818 5817 5816 5814 5813 5811 5809 5807 5805 5803 5800 5798
5785 5788 5790 5791 5793 5795 5797 5799 5800 5802 5804 5805 5807 5808 5809 5810 5811 5812 5813 5813 5814 5815 5815 5815 5815 5815 5815 5815 5814 5813 5813 5812 5811 5809 5808 5806 5804 5803 5801 5799 5796 5794 5792 5789
5778 5780 5782 5784 5786 5788 5790 5792 5793 5795 5797 5798 5800 5801 5802 5803 5804 5805 5806 5807 5807 5808 5808 5808 5808 5808 5807 5807 5806 5805 5804 5803 5802 5800 5799 5797 5796 5794 5792 5790 5787 5785 5782 5779
5770 5772 5774 5776 5778 5780 5782 5784 5786 5788 5789 5791 5793 5794 5795 5796 5797 5798 5799 5799 5800 5800 5800 5800 5800 5800 5799 5799 5798 5797 5796 5794 5793 5791 5790 5788 5786 5784 5782 5780 5777 5775 5772 5768
5761 5764 5766 5768 5770 5772 5774 5776 5778 5780 5781 5783 5784 5786 5787 5788 5789 5790 5791 5791 5791 5791 5791 5791 5791 5791 5790 5789 5789 5787 5786 5785 5783 5781 5780 5778 5775 5773 5771 5769 5766 5763 5760 5757
5753 5755 5757 5759 5761 5764 5765 5767 5769 5771 5773 5774 5776 5777 5779 5780 5781 5781 5782 5782 5782 5782 5782 5782 5782 5781 5781 5780 5779 5778 5776 5774 5773 5771 5769 5767 5764 5762 5760 5757 5754 5751 5748 5745
5743 5745 5748 5750 5753 5755 5757 5759 5760 5762 5764 5765 5767 5768 5769 5770 5771 5772 5772 5773 5773 5773 5773 5772 5772 5771 5771 5770 5769 5767 5766 5764 5762 5760 5758 5755 5753 5750 5747 5745 5742 5738 5735 5732
5734 5736 5739 5741 5743 5745 5747 5749 5751 5753 5754 5756 5757 5758 5760 5761 5762 5762 5763 5763 5763 5763 5762 5762 5762 5761 5760 5759 5758 5756 5754 5752 5750 5748 5746 5743 5740 5737 5734 5731 5728 5725 5722 5718
5724 5726 5729 5731 5733 5735 5737 5739 5741 5743 5744 5746 5747 5748 5750 5751 5751 5752 5752 5752 5752 5752 5751 5751 5750 5750 5749 5747 5746 5744 5742 5740 5738 5736 5733 5730 5727 5724 5721 5718 5715 5711 5708 5704
5713 5716 5718 5721 5723 5725 5727 5729 5731 5732 5734 5735 5737 5738 5739 5740 5740 5741 5741 5741 5741 5740 5740 5739 5738 5737 5736 5735 5734 5732 5730 5727 5725 5723 5720 5717 5714 5711 5708 5704 5701 5697 5694 5690
5703 5706 5708 5710 5712 5714 5716 5718 5720 5722 5723 5725 5726 5727 5728 5729 5729 5729 5729 5729 5729 5729 5728 5727 5726 5725 5724 5722 5720 5719 5717 5715 5712 5710 5707 5704 5701 5698 5694 5691 5687 5683 5679 5676
5692 5695 5697 5699 5701 5703 5705 5707 5709 5710 5712 5713 5714 5715 5716 5717 5717 5717 5717 5717 5717 5716 5716 5715 5714 5712 5711 5709 5708 5706 5704 5702 5699 5697 5694 5691 5687 5684 5680 5676 5673 5669 5665 5661
5681 5683 5686 5688 5690 5692 5694 5696 5698 5699 5700 5701 5702 5703 5704 5704 5705 5705 5705 5705 5704 5703 5703 5702 5701 5699 5698 5696 5694 5693 5691 5688 5686 5683 5680 5676 5673 5669 5666 5662 5658 5654 5650 5646
5669 5671 5674 5676 5679 5681 5682 5684 5686 5687 5688 5689 5690 5690 5691 5691 5692 5692 5692 5692 5691 5690 5689 5688 5687 5686 5684 5682 5681 5679 5677 5674 5671 5668 5665 5661 5658 5654 5650 5646 5642 5638 5635 5631
5657 5659 5662 5664 5666 5668 5670 5672 5673 5674 5675 5676 5677 5677 5678 5678 5678 5678 5678 5678 5677 5676 5675 5675 5673 5672 5670 5668 5666 5664 5662 5659 5656 5653 5649 5646 5642 5638 5634 5631 5627 5623 5619 5616
5645 5648 5650 5652 5654 5656 5657 5659 5660 5661 5662 5663 5663 5664 5664 5665 5665 5664 5664 5663 5663 5662 5661 5660 5659 5657 5655 5653 5651 5649 5646 5643 5640 5637 5634 5630 5627 5623 5619 5615 5612 5608 5604 5600
5633 5636 5638 5640 5642 5643 5645 5646 5647 5648 5649 5649 5650 5650 5650 5650 5650 5649 5649 5649 5648 5647 5646 5645 5643 5642 5640 5638 5635 5633 5630 5628 5625 5621 5618 5615 5611 5608 5604 5601 5597 5593 5589 5585
5621 5624 5626 5627 5629 5630 5632 5632 5633 5634 5635 5636 5636 5636 5636 5635 5635 5634 5634 5633 5633 5632 5630 5629 5628 5626 5624 5622 5620 5618 5615 5612 5609 5606 5603 5599 5596 5593 5589 5586 5582 5578 5574 5570